Precipitable_Water
0.82 0.78 0.76 0.74 0.71 0.71 0.74 0.74 0.76 0.78 0.80 0.80 0.82 0.83 0.72 0.64 0.72 0.78 0.57 0.78 0.91 0.92 0.90 0.67 0.79 0.95 0.99 0.75 0.69 0.77 0.59 0.51 0.52 0.50 0.52 0.63 0.54 0.53 0.51 0.46 0.46 0.48 0.55 0.83 0.95
0.77 0.73 0.71 0.71 0.70 0.67 0.67 0.66 0.67 0.71 0.75 0.75 0.75 0.79 0.79 0.69 0.53 0.54 0.78 0.98 0.98 0.93 0.84 0.61 0.58 0.76 0.76 0.74 0.68 0.57 0.49 0.51 0.57 0.58 0.55 0.60 0.52 0.49 0.44 0.41 0.41 0.45 0.58 0.78 0.88
0.67 0.73 0.73 0.71 0.69 0.68 0.67 0.66 0.68 0.69 0.68 0.70 0.72 0.76 0.79 0.71 0.46 0.34 0.68 0.95 1.02 0.97 0.90 0.74 0.72 0.72 0.64 0.72 0.68 0.56 0.40 0.50 0.55 0.59 0.59 0.55 0.49 0.48 0.46 0.39 0.42 0.44 0.50 0.69 0.80
0.65 0.73 0.74 0.72 0.72 0.70 0.68 0.67 0.66 0.68 0.70 0.70 0.69 0.69 0.78 0.66 0.27 0.50 0.56 0.83 0.95 1.00 0.79 0.76 0.63 0.62 0.61 0.55 0.68 0.56 0.55 0.51 0.55 0.59 0.54 0.49 0.50 0.47 0.48 0.48 0.53 0.55 0.60 0.59 0.73
0.70 0.73 0.75 0.74 0.72 0.70 0.69 0.67 0.67 0.66 0.68 0.70 0.69 0.70 0.65 0.49 0.38 0.63 0.87 0.89 0.95 0.92 0.68 0.65 0.55 0.57 0.55 0.60 0.62 0.59 0.61 0.60 0.62 0.61 0.56 0.53 0.49 0.49 0.48 0.56 0.59 0.60 0.56 0.52 0.54
0.74 0.76 0.77 0.76 0.74 0.71 0.69 0.67 0.65 0.69 0.69 0.67 0.68 0.68 0.52 0.34 0.55 0.55 0.82 0.85 0.98 0.88 0.69 0.65 0.57 0.63 0.62 0.64 0.55 0.64 0.67 0.65 0.63 0.63 0.62 0.54 0.53 0.55 0.53 0.59 0.56 0.54 0.50 0.50 0.51
0.76 0.77 0.77 0.78 0.78 0.74 0.68 0.67 0.67 0.69 0.66 0.66 0.69 0.64 0.48 0.38 0.58 0.77 0.79 0.80 0.89 0.93 0.71 0.66 0.70 0.64 0.65 0.63 0.69 0.64 0.56 0.63 0.60 0.61 0.58 0.61 0.50 0.50 0.58 0.57 0.53 0.50 0.49 0.47 0.46
0.74 0.76 0.69 0.75 0.79 0.72 0.60 0.62 0.64 0.63 0.67 0.70 0.66 0.60 0.41 0.57 0.60 0.58 0.83 0.85 0.86 0.93 0.82 0.75 0.80 0.68 0.65 0.69 0.64 0.54 0.54 0.47 0.54 0.56 0.57 0.55 0.37 0.47 0.55 0.51 0.47 0.46 0.46 0.45 0.44
0.73 0.67 0.70 0.72 0.76 0.67 0.56 0.58 0.60 0.64 0.65 0.66 0.59 0.53 0.35 0.59 0.44 0.55 0.86 0.84 0.87 0.96 0.84 0.76 0.82 0.64 0.62 0.50 0.46 0.48 0.36 0.38 0.43 0.49 0.50 0.48 0.38 0.45 0.51 0.47 0.45 0.45 0.45 0.44 0.42
0.66 0.66 0.68 0.72 0.75 0.65 0.54 0.59 0.62 0.61 0.61 0.63 0.62 0.44 0.40 0.38 0.52 0.58 0.77 0.86 0.82 0.82 0.68 0.62 0.65 0.59 0.54 0.46 0.29 0.29 0.32 0.34 0.35 0.46 0.43 0.40 0.39 0.44 0.47 0.45 0.41 0.41 0.42 0.42 0.41
0.64 0.62 0.70 0.71 0.73 0.61 0.58 0.54 0.44 0.43 0.50 0.40 0.41 0.36 0.47 0.56 0.68 0.62 0.80 0.78 0.85 0.67 0.43 0.59 0.51 0.45 0.43 0.40 0.37 0.36 0.35 0.32 0.37 0.49 0.42 0.36 0.38 0.37 0.43 0.41 0.38 0.38 0.38 0.38 0.38
0.64 0.65 0.68 0.67 0.65 0.57 0.58 0.43 0.45 0.51 0.35 0.42 0.39 0.40 0.49 0.64 0.51 0.62 0.76 0.59 0.66 0.44 0.48 0.54 0.41 0.58 0.54 0.47 0.41 0.38 0.36 0.34 0.41 0.44 0.42 0.35 0.35 0.40 0.38 0.35 0.36 0.36 0.36 0.37 0.39
0.67 0.63 0.63 0.65 0.60 0.58 0.51 0.46 0.60 0.59 0.36 0.37 0.44 0.45 0.49 0.63 0.55 0.60 0.72 0.63 0.54 0.40 0.44 0.40 0.53 0.62 0.59 0.47 0.39 0.37 0.37 0.35 0.34 0.40 0.41 0.36 0.31 0.31 0.35 0.34 0.34 0.33 0.33 0.34 0.34
0.68 0.66 0.62 0.59 0.56 0.55 0.45 0.57 0.63 0.62 0.31 0.30 0.40 0.53 0.60 0.64 0.49 0.70 0.76 0.68 0.60 0.41 0.49 0.47 0.61 0.58 0.57 0.48 0.43 0.33 0.40 0.39 0.37 0.32 0.23 0.34 0.19 0.31 0.31 0.31 0.32 0.33 0.33 0.36 0.40
0.64 0.68 0.64 0.62 0.51 0.44 0.52 0.61 0.68 0.58 0.19 0.40 0.46 0.67 0.65 0.57 0.56 0.58 0.77 0.70 0.45 0.42 0.48 0.43 0.52 0.55 0.48 0.50 0.48 0.39 0.47 0.42 0.37 0.35 0.33 0.31 0.23 0.30 0.31 0.28 0.32 0.35 0.38 0.42 0.46
0.65 0.65 0.66 0.62 0.58 0.56 0.61 0.64 0.57 0.32 0.21 0.38 0.50 0.51 0.52 0.58 0.59 0.67 0.66 0.71 0.60 0.51 0.55 0.53 0.66 0.64 0.58 0.56 0.52 0.56 0.43 0.40 0.39 0.36 0.24 0.30 0.25 0.25 0.26 0.29 0.33 0.39 0.40 0.43 0.47
0.67 0.64 0.64 0.63 0.46 0.63 0.64 0.53 0.31 0.24 0.41 0.37 0.40 0.51 0.47 0.47 0.53 0.56 0.54 0.52 0.46 0.40 0.40 0.48 0.51 0.62 0.64 0.51 0.55 0.49 0.38 0.28 0.26 0.25 0.26 0.33 0.26 0.28 0.29 0.34 0.37 0.38 0.41 0.46 0.49
0.65 0.63 0.62 0.63 0.66 0.65 0.55 0.35 0.18 0.31 0.32 0.47 0.44 0.43 0.40 0.47 0.49 0.50 0.50 0.44 0.53 0.50 0.43 0.38 0.34 0.51 0.61 0.54 0.45 0.45 0.41 0.29 0.20 0.22 0.26 0.32 0.23 0.25 0.33 0.39 0.40 0.41 0.44 0.45 0.48
0.66 0.60 0.58 0.65 0.69 0.66 0.43 0.21 0.22 0.31 0.41 0.38 0.39 0.34 0.34 0.41 0.42 0.45 0.46 0.44 0.47 0.50 0.39 0.38 0.37 0.56 0.60 0.62 0.59 0.47 0.38 0.42 0.26 0.26 0.25 0.25 0.27 0.32 0.33 0.35 0.36 0.40 0.43 0.45 0.48
0.52 0.53 0.54 0.65 0.68 0.55 0.37 0.27 0.33 0.41 0.44 0.43 0.30 0.35 0.28 0.35 0.37 0.41 0.41 0.46 0.45 0.51 0.53 0.46 0.36 0.49 0.54 0.60 0.57 0.53 0.53 0.35 0.31 0.19 0.17 0.21 0.22 0.21 0.26 0.30 0.34 0.38 0.42 0.45 0.49
0.47 0.40 0.58 0.69 0.68 0.47 0.26 0.31 0.39 0.47 0.46 0.39 0.34 0.35 0.35 0.33 0.37 0.37 0.37 0.44 0.47 0.46 0.49 0.46 0.42 0.42 0.47 0.44 0.42 0.43 0.40 0.41 0.40 0.29 0.20 0.16 0.18 0.27 0.28 0.32 0.34 0.39 0.43 0.46 0.53
0.44 0.33 0.59 0.68 0.38 0.40 0.31 0.38 0.45 0.43 0.49 0.44 0.42 0.38 0.36 0.37 0.35 0.35 0.36 0.42 0.50 0.48 0.40 0.44 0.39 0.33 0.37 0.45 0.48 0.43 0.39 0.38 0.29 0.27 0.26 0.23 0.21 0.29 0.32 0.35 0.36 0.40 0.45 0.50 0.58
0.32 0.37 0.58 0.63 0.30 0.33 0.38 0.39 0.43 0.40 0.41 0.40 0.38 0.40 0.41 0.35 0.32 0.37 0.39 0.46 0.48 0.45 0.41 0.42 0.34 0.25 0.28 0.35 0.40 0.36 0.37 0.37 0.34 0.31 0.25 0.19 0.21 0.31 0.33 0.34 0.38 0.42 0.48 0.56 0.60
0.42 0.28 0.41 0.51 0.48 0.38 0.34 0.34 0.35 0.44 0.40 0.41 0.39 0.42 0.38 0.35 0.39 0.36 0.38 0.45 0.46 0.45 0.45 0.43 0.33 0.29 0.24 0.28 0.33 0.28 0.31 0.34 0.32 0.25 0.24 0.21 0.24 0.28 0.30 0.33 0.41 0.46 0.53 0.61 0.60
0.47 0.34 0.40 0.31 0.38 0.39 0.37 0.34 0.32 0.32 0.39 0.40 0.36 0.36 0.36 0.33 0.34 0.35 0.39 0.41 0.44 0.42 0.44 0.40 0.28 0.28 0.29 0.31 0.32 0.31 0.30 0.32 0.29 0.29 0.23 0.24 0.24 0.30 0.32 0.36 0.41 0.51 0.59 0.59 0.58
0.37 0.39 0.40 0.38 0.41 0.39 0.38 0.34 0.33 0.35 0.35 0.33 0.34 0.38 0.38 0.34 0.34 0.32 0.35 0.37 0.35 0.40 0.39 0.41 0.30 0.30 0.26 0.29 0.29 0.27 0.31 0.33 0.32 0.31 0.28 0.29 0.27 0.35 0.37 0.41 0.51 0.56 0.60 0.59 0.57
0.44 0.51 0.44 0.38 0.38 0.37 0.38 0.39 0.37 0.40 0.40 0.41 0.40 0.39 0.37 0.41 0.46 0.46 0.44 0.42 0.41 0.37 0.36 0.36 0.32 0.28 0.24 0.28 0.27 0.21 0.26 0.29 0.31 0.33 0.31 0.25 0.29 0.37 0.40 0.49 0.55 0.59 0.63 0.60 0.57
Wind_Speed
31 32 32 32 33 34 35 36 37 37 37 39 37 37 37 36 37 36 34 30 32 29 32 36 37 36 35 35 37 34 36 37 38 35 30 26 28 28 24 25 21 21 20 17 16
32 33 33 34 35 36 38 38 39 40 40 39 39 39 38 37 38 41 36 35 30 31 32 36 39 37 36 36 35 37 37 39 33 32 29 29 28 27 25 27 26 24 21 20 19
33 34 35 37 39 38 38 37 36 36 38 37 38 37 37 36 39 45 42 37 35 32 32 34 37 37 36 36 37 37 38 35 32 28 26 29 29 29 27 27 27 26 24 22 21
35 36 39 40 38 37 35 31 27 25 26 29 32 35 34 35 33 29 42 41 39 35 35 33 38 38 37 37 39 34 38 31 32 29 26 29 28 29 28 24 25 24 22 22 22
37 39 40 39 37 33 29 24 20 18 17 19 23 28 32 35 38 31 32 40 39 38 37 36 39 39 37 38 35 37 31 35 29 27 28 30 31 29 29 27 25 25 25 24 23
40 42 40 38 34 29 23 19 15 12 11 13 17 21 28 36 33 37 33 35 40 39 38 37 36 38 34 31 38 34 33 32 32 28 27 29 30 29 29 28 28 28 27 26 25
43 44 41 38 31 24 19 16 12 11 10 11 12 16 24 29 29 32 36 37 35 40 38 37 33 38 31 31 34 29 36 28 33 30 27 28 32 34 31 27 29 28 29 28 27
45 45 41 35 26 19 15 11 9 9 10 11 12 13 17 22 33 35 32 35 36 40 37 35 32 36 29 29 32 32 32 34 32 30 30 30 30 31 33 33 33 31 30 30 29
46 45 40 30 19 13 11 8 9 10 12 11 10 12 15 16 28 36 30 30 32 38 35 34 31 33 32 32 30 34 31 33 29 33 27 31 26 29 27 27 29 30 30 30 30
47 45 38 23 12 9 8 7 8 9 9 8 9 8 12 14 22 38 36 28 28 35 33 31 29 29 31 33 33 35 36 32 32 27 32 32 31 26 26 28 28 28 28 28 29
45 43 36 21 11 8 7 6 6 6 7 7 5 11 4 9 24 35 35 32 27 34 32 30 26 29 35 36 32 30 32 28 28 24 26 30 29 31 27 28 28 28 29 29 29
43 42 34 22 15 11 8 7 6 7 6 6 8 9 10 16 27 27 33 33 29 35 31 26 26 26 30 31 29 25 30 28 22 24 25 26 28 27 26 28 28 27 27 27 27
40 39 35 23 17 14 12 9 5 6 6 10 13 16 17 17 18 27 28 28 31 34 31 26 22 27 22 29 27 27 27 28 22 23 24 21 26 27 23 23 23 24 25 24 24
36 36 33 26 20 19 19 19 19 18 17 18 20 19 16 13 22 25 22 20 25 31 25 21 18 26 23 27 27 26 25 23 21 22 20 23 17 22 22 22 20 19 19 19 20
32 32 29 27 21 20 20 20 18 14 12 11 12 13 15 14 26 21 16 18 22 24 21 18 24 23 26 24 26 21 22 22 21 20 18 21 19 18 22 21 20 19 19 19 19
28 26 24 20 18 16 15 13 11 11 15 13 11 12 15 22 25 21 13 18 22 17 15 14 17 16 18 17 20 21 20 18 17 17 18 21 21 20 23 22 19 19 18 18 18
24 21 19 16 14 11 11 10 11 13 11 12 13 14 19 24 21 14 17 16 18 14 12 15 17 18 17 18 17 22 23 16 16 17 17 16 18 15 18 20 18 17 17 17 17
21 18 16 14 12 11 9 9 13 13 14 12 13 16 15 13 14 9 14 16 13 14 12 9 12 17 17 19 20 22 23 16 17 17 16 16 19 17 19 17 17 17 17 17 17
18 13 13 12 11 10 9 11 11 11 11 13 13 12 9 9 12 9 8 9 8 10 10 9 10 9 16 18 17 19 18 14 13 12 14 16 16 16 18 19 17 16 17 17 17
14 12 11 10 7 7 8 10 9 10 11 8 8 6 9 11 10 9 6 5 9 9 9 11 11 12 15 16 15 16 16 15 13 14 15 15 17 15 21 22 17 16 15 14 15
11 9 10 7 5 5 5 6 6 7 6 5 7 8 9 11 8 6 5 7 7 9 9 12 9 11 12 13 14 12 12 12 11 12 11 12 13 12 20 21 15 14 14 14 15
8 8 9 5 2 2 4 5 5 5 6 5 5 6 7 8 8 5 6 4 8 9 9 7 8 10 10 11 11 11 13 14 11 12 10 10 8 13 18 18 13 12 12 13 14
9 7 7 5 1 1 3 4 4 4 5 5 6 4 6 7 6 7 6 5 7 9 10 11 9 8 9 11 13 14 15 14 11 9 12 10 9 13 15 14 14 13 13 14 14
8 7 5 4 2 3 4 4 5 4 4 4 5 4 7 6 5 7 7 8 7 8 8 9 9 9 8 7 9 13 16 16 14 13 12 13 10 14 14 13 12 12 13 13 14
8 6 6 5 2 4 5 5 6 6 4 4 5 4 5 5 5 6 7 9 8 8 10 10 9 8 8 7 8 11 13 16 15 16 13 10 14 16 11 12 12 13 12 12 12
9 8 8 8 7 5 5 6 8 8 6 7 5 6 6 4 3 5 8 9 9 10 10 10 9 9 10 10 12 13 14 15 18 19 19 16 15 14 12 11 12 11 11 10 11
10 9 9 9 8 6 4 4 6 8 8 8 8 8 7 5 4 4 5 7 8 10 11 11 10 10 9 9 10 13 17 18 16 15 19 17 16 13 11 11 11 10 10 10 10
Wind_Direction
314 311 308 305 301 296 290 284 277 269 263 257 254 249 246 244 240 238 235 230 227 223 221 217 216 217 215 216 217 219 221 223 223 225 225 222 219 220 223 225 220 219 226 223 220
316 313 309 307 304 299 294 287 279 270 263 257 251 247 244 242 240 236 231 226 226 222 219 215 213 213 214 214 215 216 220 221 223 226 225 222 221 219 221 223 224 224 224 227 223
320 317 313 310 307 303 299 293 284 272 262 254 247 244 242 241 242 237 228 224 222 220 217 216 211 210 214 214 214 217 222 222 224 223 217 222 221 226 221 223 223 224 223 227 228
322 319 317 314 311 307 304 298 289 277 264 253 244 239 238 235 232 229 221 220 222 218 215 213 209 209 213 214 215 221 221 224 221 220 219 220 221 220 223 223 223 221 224 231 230
327 324 320 317 313 310 306 300 292 279 264 251 241 237 234 232 230 229 221 216 214 214 213 211 209 209 213 214 215 217 219 219 219 217 220 220 221 221 222 224 223 225 230 233 234
330 327 323 320 315 312 306 298 288 275 264 254 246 240 235 235 230 225 216 210 209 210 210 209 210 208 214 216 212 215 220 219 219 217 216 218 221 222 225 226 228 231 233 234 235
332 330 326 319 313 309 303 294 275 269 264 258 255 246 238 230 222 214 210 209 210 208 207 207 208 206 211 213 213 218 216 217 219 216 220 221 227 225 228 228 231 233 236 237 239
336 333 328 324 312 307 301 287 265 265 265 271 259 253 242 228 220 213 205 207 209 204 204 203 206 206 211 211 209 213 215 219 220 219 222 219 228 228 227 233 235 237 238 239 240
341 339 334 326 319 307 308 281 264 273 275 269 260 252 243 215 209 200 189 188 192 193 197 199 204 206 208 206 207 212 214 216 216 217 217 220 229 226 224 230 234 237 239 241 242
349 348 345 340 330 320 314 295 276 280 279 260 252 245 223 206 200 189 194 187 184 185 186 194 200 203 207 204 208 209 215 214 216 216 222 223 229 228 229 231 236 239 240 241 242
358 359 1 4 3 348 335 312 290 283 267 256 249 212 188 190 177 177 181 182 182 183 188 192 197 202 204 207 211 219 213 219 214 214 218 223 231 230 231 235 238 241 242 242 244
4 7 10 18 18 12 355 337 321 299 286 254 212 182 157 150 156 175 178 180 183 183 186 191 203 200 201 205 210 218 209 209 212 211 220 223 230 231 234 236 239 242 244 244 245
7 12 17 21 22 21 19 14 39 76 105 112 133 137 145 148 174 151 165 178 185 180 190 196 196 200 207 202 203 209 208 209 215 213 221 226 233 231 231 234 236 238 241 241 241
10 15 20 28 41 49 60 71 87 87 91 99 115 124 136 137 141 159 160 170 176 178 182 195 194 193 197 199 201 203 209 207 209 209 220 218 227 219 221 225 228 228 228 231 234
9 16 26 38 52 64 71 81 83 74 90 104 119 129 136 142 147 155 164 182 170 175 184 189 200 196 201 199 201 208 201 205 211 217 223 218 230 216 216 221 224 225 227 231 236
6 14 25 37 52 62 59 64 70 79 77 101 116 127 129 144 132 140 152 158 164 172 186 191 194 199 200 195 198 189 189 198 208 217 226 222 225 220 220 219 220 223 227 233 239
3 11 20 30 40 47 45 71 78 69 101 94 113 108 110 128 131 108 126 144 158 170 170 187 195 194 195 184 195 197 194 203 211 216 225 217 223 242 213 211 217 221 227 233 241
358 8 18 26 38 44 52 76 86 79 94 105 120 105 115 131 141 118 123 120 142 148 154 161 170 196 196 194 198 197 201 214 213 215 214 218 226 228 214 211 221 228 234 239 244
357 8 16 27 38 47 66 81 101 101 103 109 117 117 134 133 154 146 125 125 145 157 165 162 156 153 185 201 189 195 205 210 216 221 222 217 221 225 218 219 226 231 235 241 247
353 0 7 17 28 52 62 87 105 117 120 124 113 133 140 139 143 164 147 141 150 158 169 165 154 158 162 165 181 192 192 207 216 212 223 219 224 229 215 215 222 227 234 242 248
343 349 2 4 37 55 64 89 115 136 134 129 120 131 143 159 155 145 154 160 164 164 172 165 175 174 181 188 186 189 199 208 218 223 228 217 221 234 211 206 216 230 237 248 253
324 343 356 358 2 24 80 120 115 127 144 151 147 135 152 159 173 172 172 165 176 179 176 182 176 183 191 198 213 219 214 211 217 212 221 234 224 220 200 203 218 233 241 251 258
310 311 348 0 311 102 124 130 132 131 138 143 152 166 180 173 183 182 191 193 187 197 197 195 192 189 202 217 218 220 218 221 219 226 217 225 210 204 199 212 229 241 252 258 265
293 287 304 339 344 240 205 198 169 161 155 171 168 172 171 182 196 190 195 206 213 206 211 210 210 224 220 215 212 221 223 221 219 219 216 224 202 200 206 224 234 248 259 265 269
288 277 275 285 306 287 234 227 216 200 198 189 181 205 198 197 201 209 207 198 210 210 211 216 213 215 222 218 218 229 220 218 217 219 219 223 217 204 227 242 248 258 258 267 270
288 267 269 258 271 271 232 224 232 218 221 209 219 196 199 208 224 221 210 208 210 208 206 211 212 218 229 230 232 236 229 221 221 224 229 234 235 241 238 243 251 255 257 263 275
296 263 254 251 250 246 243 247 233 224 226 232 225 215 212 213 228 231 213 210 213 211 207 211 210 216 218 228 236 239 228 218 216 217 221 224 229 227 243 250 252 250 251 264 279